Location: Newark
(47.5333°N, 8.7000°E)
Time: 18:31:31
(UTC+00:00)

BEESAT 3 - Pass Details

Date: 26 November 2020
Orbit: 491 x 509 km, 64.9° (Epoch: 14 January)

Event Time Altitude Azimuth Distance (km) Brightness Sun altitude
Exits shadow 05:42:46 14° 271° (W) 1,516 ? -10.5°
Maximum altitude 05:45:19 25° 321° (NW) 1,077 ? -10.1°
Drops below altitude 10° 05:48:33 10° 17° (NNE) 1,738 ? -9.6°
Sets 05:51:02 0° 31° (NNE) 2,626 ? -9.2°
